Regional Weather Roundup
Issued by NWS

Home | Current Version | Previous Version | Text Only | Print | Product List | Glossary On
Versions: 1 2 3 4 5 6 7 8 9 10 11 12 13 14 15 16 17 18 19 20 21 22 23 24 25 26 27 28 29 30 31 32 33 34 35 36 37 38 39 40 41 42 43 44 45 46 47 48 49 50
000
ASUS46 KSEW 031010
RWRWA

WASHINGTON REGIONAL WEATHER ROUNDUP
NATIONAL WEATHER SERVICE SEATTLE WA
300 AM PDT SUN MAY 03 2015

NOTE:"FAIR" INDICATES FEW OR NO CLOUDS BELOW 12,000 FEET WITH NO
SIGNIFICANT WEATHER AND/OR OBSTRUCTIONS TO VISIBILITY.

WAZ505-507>509-031100-
SEATTLE, TACOMA, EVERETT, AND VICINITY

CITY           SKY/WX    TMP DP  RH WIND       PRES   REMARKS
EVERETT        CLEAR     45  41  86 N5        30.01F
BOEING FIELD   CLEAR     51  39  63 CALM      30.01F
RENTON         CLEAR     46  39  76 CALM      30.01S
SEATAC AIRPORT CLEAR     49  41  74 NE6       30.01F
JBLM-MCCHORD   CLEAR     37  36  98 S2        30.01S
PUYALLUP       FAIR      37  37 100 CALM      30.01S
BREMERTON      PTCLDY    39  36  87 NE3       30.04S
JBLM-FT LEWIS  CLEAR     36  34  93 SE7       30.00S
TACOMA NARROWS CLEAR     46  38  73 CALM      30.01F
$$

WAZ001-503-506-510-514-515-031100-
NORTH INTERIOR

CITY           SKY/WX    TMP DP  RH WIND       PRES   REMARKS
BELLINGHAM     CLEAR     41  38  89 CALM      30.01F
FRIDAY HARBOR  CLEAR     37  35  92 CALM      30.03S
EASTSOUND      CLEAR     41  37  87 CALM      30.00F
PORT ANGELES   CLEAR     41  35  79 SW9       30.02F
NAS WHIDBEY    CLEAR     41  37  86 CALM      30.02F
ARLINGTON      CLEAR     37  30  75 CALM      30.03S
BURLINGTON     CLEAR     41  37  87 CALM      30.02S
$$

WAZ020-022-039-040-504-511-512-031100-
SOUTHWEST INTERIOR

CITY           SKY/WX    TMP DP  RH WIND       PRES   REMARKS
SHELTON        CLEAR     38  36  92 CALM      29.99F
OLYMPIA        CLEAR     39  34  82 CALM      30.01S
CHEHALIS       FAIR      41  41 100 CALM      30.00S
KELSO          CLEAR     43  36  75 CALM      30.03F
VANCOUVER      CLEAR     43  37  79 CALM      29.97S
SCAPPOOSE, OR  CLEAR     50  36  58 N6        29.97S
PORTLAND, OR   CLEAR     49  41  74 NW5       29.98S
$$

WAZ021-516-517-031100-
WASHINGTON COAST

CITY           SKY/WX    TMP DP  RH WIND       PRES   REMARKS
FORKS          CLOUDY    40  39  97 CALM      30.02S
HOQUIAM        CLEAR     43  41  93 CALM      30.01S
ASTORIA, OR    CLEAR     42  39  89 SE3       30.01F
$$

WAZ019-023-024-040-518-519-031100-
CASCADE MOUNTAINS AND COLUMBIA GORGE

CITY           SKY/WX    TMP DP  RH WIND       PRES   REMARKS
TROUTDALE, OR  CLEAR     45  40  82 CALM      29.96S
THE DALLES, OR CLEAR     50  39  66 CALM      29.93R
$$

WAZ026-027-041>044-520-521-031100-
EAST SLOPES

CITY           SKY/WX    TMP DP  RH WIND       PRES   REMARKS
OMAK           CLEAR     44  25  47 NW10      30.00R
WENATCHEE      CLEAR     51  33  50 CALM      29.96R
ELLENSBURG     CLEAR     41  31  67 CALM      29.95S
YAKIMA         CLEAR     44  32  62 W10       29.95R
$$

WAZ028-034-035-031100-
COLUMBIA BASIN

CITY           SKY/WX    TMP DP  RH WIND       PRES   REMARKS
EPHRATA        CLEAR     50  27  40 N8        29.94R
MOSES LAKE     CLEAR     40  29  64 N6        29.95S
PASCO          CLEAR     42  33  70 NE3       29.94R
HERMISTON, OR  CLEAR     39  32  76 CALM      29.92R
$$

WAZ036>038-031100-
NORTHEAST WASHINGTON

CITY           SKY/WX    TMP DP  RH WIND       PRES   REMARKS
SPOKANE GEIGER PTCLDY    46  26  45 N3        29.96R
SPOKANE FELTS  CLEAR     40  33  76 CALM      29.97R
FAIRCHILD AFB  CLEAR     42  21  43 NE3       29.95S
COEURDALENE,ID CLEAR     43  27  52 NE10      29.98R
DEER PARK      CLEAR     33  27  78 CALM      29.98R
$$

WAZ029>033-031100-
SOUTHEAST WASHINGTON

CITY           SKY/WX    TMP DP  RH WIND       PRES   REMARKS
PULLMAN        CLEAR     32  25  75 CALM      29.96R
LEWISTON, ID   CLEAR     46  28  49 CALM      29.94R
WALLA WALLA    CLEAR     49  30  48 CALM      29.91S
PENDLETON, OR  CLEAR     42  32  67 SE10      29.92S
$$


USA.gov is the U.S. government's official web portal to all federal, state and local government web resources and services.